Weather History for Luxor, Egypt

Change the Weather History Date:

Saturday, May 3, 2014

  Actual Average Record
Temperature  
Mean Temperature 88 °F -  
Max Temperature 104 °F 99 °F - ()
Min Temperature 72 °F 70 °F - ()
Cooling Degree Days 23    
Growing Degree Days 38 (Base 50)    
Moisture  
Dew Point 43 °F    
Average Humidity 18    
Maximum Humidity 34    
Minimum Humidity 7    
Precipitation  
Precipitation 0.00 in 0.00 in - ()
Sea Level Pressure  
Sea Level Pressure 29.86 in    
Wind  
Wind Speed 3 mph ()    
Max Wind Speed 14 mph    
Max Gust Speed -    
Visibility 5.7 miles    
Events      
T = Trace of Precipitation, MM = Missing Value Source: Averaged Metar Reports

Daily Weather History Graph

Daily Weather History Graph

Search for Another Location

Airport:

Trip Planner

Search our weather history database for the weather conditions in past years. The results will help you decide how hot, cold, wet, or windy it might be!

Date:

Astronomy

May. 03, 2014 Rise Set
Actual Time 5:11 AM EET 6:21 PM EET
Civil Twilight 4:47 AM EET 6:45 PM EET
Nautical Twilight 4:18 AM EET 7:14 PM EET
Astronomical Twilight 3:48 AM EET 7:44 PM EET
Moon 8:28 AM EET (5/3) 10:08 PM EET (5/3)
Length of Visible Light 13h 58m
Length of Day
13h 09m
Waxing Crescent, 17% of the Moon is Illuminated
May 3
Waxing Crescent
May 7
First Quarter
May 14
Full
May 21
Last Quarter
May 28
New

Hourly Weather History & Observations

Time (EET) Temp. Dew Point Humidity Pressure Visibility Wind Dir Wind Speed Gust Speed Precip Events Conditions
12:00 AM 80.6 °F 35.6 °F 20% 29.86 in - Calm Calm - N/A   Clear
1:00 AM 84.2 °F 41.0 °F 22% 29.86 in - North 5.8 mph - N/A   Clear
2:00 AM 81 °F 42 °F 15% 29.86 in 6 mi NNE 2.3 mph - -  
2:00 AM 80.6 °F 42.8 °F 26% 29.86 in - NNE 2.3 mph - N/A   Clear
3:00 AM 78.8 °F 41.0 °F 26% 29.86 in - Calm Calm - N/A   Clear
4:00 AM 77.0 °F 39.2 °F 26% 29.89 in - Calm Calm - N/A   Clear
5:00 AM 74 °F 39 °F 18% 29.88 in 6 mi Calm Calm - -  
5:00 AM 75.2 °F 39.2 °F 27% 29.89 in - Calm Calm - N/A   Clear
6:00 AM 73.4 °F 42.8 °F 33% 29.92 in - Calm Calm - N/A   Clear
7:00 AM 78.8 °F 48.2 °F 34% 29.92 in - Calm Calm - N/A   Clear
8:00 AM 85 °F 46 °F 16% 29.92 in 6 mi East 2.3 mph - -  
8:00 AM 84.2 °F 46.4 °F 27% 29.92 in - East 2.3 mph - N/A   Clear
9:00 AM 91.4 °F 50.0 °F 24% 29.95 in 3.7 mi Calm Calm - N/A   Unknown
10:00 AM 93.2 °F 48.2 °F 21% 29.92 in - NE 2.3 mph - N/A   Clear
11:00 AM 98 °F 47 °F 10% 29.89 in 6 mi NE 3.5 mph - -  
11:00 AM 98.6 °F 46.4 °F 17% 29.92 in - NE 3.5 mph - N/A   Clear
12:00 PM 100.4 °F 44.6 °F 15% 29.86 in - ENE 8.1 mph - N/A   Clear
1:00 PM 102.2 °F 42.8 °F 13% 29.86 in - ENE 10.4 mph - N/A   Clear
2:00 PM 104 °F 43 °F 7% 29.80 in 6 mi East 10.4 mph - -  
2:00 PM 104.0 °F 42.8 °F 12% 29.83 in - East 10.4 mph - N/A   Clear
3:00 PM 104.0 °F 42.8 °F 12% 29.83 in - ENE 9.2 mph - N/A   Clear
4:00 PM 104.0 °F 42.8 °F 12% 29.77 in - East 9.2 mph - N/A   Clear
5:00 PM 103 °F 42 °F 7% 29.78 in 6 mi East 9.2 mph - -   Clear
5:00 PM 102.2 °F 42.8 °F 13% 29.80 in - East 9.2 mph - N/A   Clear
6:00 PM 100.4 °F 42.8 °F 14% 29.80 in - ENE 13.8 mph - N/A   Clear
7:00 PM 98.6 °F 41.0 °F 14% 29.80 in - East 13.8 mph - N/A   Clear
8:00 PM 95 °F 40 °F 8% 29.81 in 6 mi ENE 9.2 mph - -   Clear
8:00 PM 95.0 °F 39.2 °F 14% 29.83 in - ENE 9.2 mph - N/A   Clear
9:00 PM 91.4 °F 37.4 °F 15% 29.83 in - ENE 8.1 mph - N/A   Clear
10:00 PM 87.8 °F 39.2 °F 18% 29.83 in - North 2.3 mph - N/A   Clear
11:00 PM 83 °F 41 °F 14% 29.84 in 6 mi Calm Calm - -  
11:00 PM 82.4 °F 41.0 °F 23% 29.83 in - Calm Calm - N/A   Clear